Flag for U.S.A. Weather past 2 weeks in Bowling Green, Kentucky, U.S.A.

Now
77 °F

Sunny.


Feels Like: 78 °F
Forecast: 57 / 83 °F
Wind: 3 mph from Southwest

Location: Glasgow Municipal Airport

Current Time: May 4, 2015 at 7:20:20 PM

Latest Report: May 4, 2015 at 6:30 PM


Visibility: 10 mi

Pressure: 30.19 "Hg

Humidity: 43%

Dew point: 53 °F

Location of Bowling GreenLocation

Historic Weather in Bowling Green — Graph

°F

Bowling Green temperature yesterday

Maximum temperature yesterday: 79 °F (at 3:50 PM)
Minimum temperature yesterday: 44 °F (at 5:50 AM)
Average temperature yesterday: 63 °F

Past Weeks' High & Low Weather Summary

 TemperatureHumidityPressure
High81 °F (May 4, 4:50 PM)100% (Apr 19, 11:50 PM)30.26 "Hg (Apr 19, 11:50 PM)
Low33 °F (Apr 24, 6:30 AM)23% (Apr 23, 3:10 PM)29.44 "Hg (Apr 25, 6:50 PM)
Average56 °F67%29.93 "Hg
* Reported Apr 19 6:10 PM — May 4 6:10 PM, Bowling Green, Weather by CustomWeather, © 2015

Note: Actual official high and low records may vary slightly from our data, if they occured in-between our weather recording intervals... More about our weather records

Advertising

Bowling Green weather history for previous 24 hours

 ConditionsComfort  
Time TempWeatherWind HumidityBarometerVisibility
6:10 PM
Mon, May 4
78 °FSunny.5 mph45%30.19 "Hg7 mi
5:50 PM79 °FSunny.6 mph43%30.19 "Hg7 mi
5:30 PM80 °FScattered clouds.8 mph40%30.19 "Hg10 mi
5:10 PM79 °FScattered clouds.7 mph42%30.19 "Hg10 mi
4:50 PM81 °FScattered clouds.8 mph40%30.19 "Hg10 mi
3:50 PM81 °FSunny.7 mph40%30.19 "Hg10 mi
3:10 PM81 °FBroken clouds.8 mph41%30.20 "Hg10 mi
2:50 PM78 °FMostly cloudy.6 mph45%30.21 "Hg10 mi
2:30 PM80 °FPartly sunny.10 mph43%30.21 "Hg10 mi
2:10 PM79 °FMostly cloudy.5 mph45%30.22 "Hg10 mi
1:50 PM78 °FCloudy.7 mph46%30.22 "Hg10 mi
1:30 PM80 °FBroken clouds.7 mph43%30.22 "Hg10 mi
1:10 PM79 °FMore clouds than sun.6 mph44%30.23 "Hg10 mi
12:50 PM79 °FBroken clouds.9 mph45%30.23 "Hg10 mi
12:30 PM79 °FScattered clouds.9 mph43%30.24 "Hg10 mi
12:10 PM78 °FScattered clouds.10 mph45%30.25 "Hg10 mi
11:50 AM79 °FScattered clouds.12 mph44%30.25 "Hg10 mi
11:30 AM78 °FSunny.8 mph44%30.26 "Hg10 mi
11:10 AM77 °FScattered clouds.9 mph44%30.26 "Hg10 mi
10:50 AM76 °FPartly sunny.8 mph46%30.26 "Hg10 mi
10:30 AM74 °FOvercast.7 mph48%30.26 "Hg10 mi
10:10 AM74 °FPartly sunny.10 mph48%30.26 "Hg10 mi
9:50 AM74 °FSunny.8 mph50%30.25 "Hg10 mi
9:30 AM72 °FSunny.10 mph52%30.25 "Hg10 mi
9:10 AM70 °FScattered clouds.7 mph54%30.24 "Hg10 mi
8:50 AM71 °FScattered clouds.9 mph54%30.24 "Hg10 mi
8:30 AM68 °FScattered clouds.7 mph56%30.23 "Hg10 mi
8:10 AM67 °FScattered clouds.5 mph60%30.23 "Hg10 mi
7:50 AM64 °FSunny.3 mph63%30.22 "Hg10 mi
7:10 AM61 °FSunny.5 mph67%30.21 "Hg10 mi
6:50 AM60 °FSunny.3 mph68%30.20 "Hg10 mi
6:30 AM58 °FSunny.No wind70%30.19 "Hg10 mi
6:10 AM57 °FSunny.No wind72%30.18 "Hg10 mi
5:50 AM56 °FSunny.No wind72%30.17 "Hg10 mi
5:10 AM57 °FClear.No wind71%30.16 "Hg10 mi
4:50 AM56 °FClear.No wind74%30.16 "Hg10 mi
4:30 AM55 °FClear.No wind81%30.15 "Hg10 mi
4:10 AM55 °FClear.No wind83%30.16 "Hg10 mi
3:50 AM55 °FClear.No wind81%30.15 "Hg10 mi
3:30 AM55 °FClear.No wind79%30.15 "Hg10 mi
3:10 AM56 °FPassing clouds.No wind76%30.14 "Hg10 mi
2:50 AM55 °FPassing clouds.No wind76%30.14 "Hg10 mi
2:10 AM58 °FClear.No wind71%30.13 "Hg10 mi
1:50 AM59 °FClear.No wind68%30.13 "Hg10 mi
1:30 AM59 °FClear.No wind68%30.13 "Hg10 mi
1:10 AM60 °FClear.No wind69%30.13 "Hg10 mi
12:50 AM60 °FClear.No wind68%30.12 "Hg10 mi
12:30 AM60 °FClear.No wind68%30.13 "Hg10 mi
12:10 AM59 °FClear.No wind69%30.12 "Hg10 mi
11:50 PM
Sun, May 3
60 °FClear.No wind69%30.13 "Hg10 mi
11:30 PM57 °FClear.No wind78%30.12 "Hg10 mi
11:10 PM59 °FClear.No wind75%30.12 "Hg10 mi
10:50 PM58 °FClear.No wind79%30.13 "Hg10 mi
10:10 PM58 °FClear.No wind78%30.13 "Hg10 mi
9:50 PM60 °FClear.No wind76%30.13 "Hg10 mi
9:30 PM60 °FClear.No wind74%30.12 "Hg10 mi
9:10 PM60 °FClear.No wind73%30.12 "Hg10 mi
8:50 PM62 °FClear.No wind69%30.11 "Hg10 mi
8:30 PM64 °FClear.No wind63%30.11 "Hg10 mi
8:10 PM65 °FClear.No wind65%30.10 "Hg10 mi
7:50 PM66 °FClear.No wind65%30.09 "Hg10 mi
7:30 PM69 °FSunny.No wind52%30.09 "Hg10 mi
7:10 PM72 °FSunny.No wind48%30.09 "Hg10 mi
Weather by CustomWeather, © 2015

See weather overviewHow to use our weather pages